Погода в Славгороде

Погода в Славгороде : погода сейчас, прогноз погоды и архив. Всё, что Вы хотите узнать о погоде в Славгороде!

Хотите узнать прогноз погоды в Славгороде? Тогда Вам сюда: Погода в Славгороде

Поиск расширенной информации на нашем сайте:

Полезная информация:

Другие новости

Новости СМИ2

Главная страница сайта

Новости сайта

03.07.2017

Напоминаем, что на нашем специализированном сайте Метеоцентр.Азия вы можете получить высокодетализированные автоматические прогнозы погоды по пунктам России, СНГ и мира в авиационном формате (включающие направление и скорость ветра, видимость, явления погоды, количество и форму облачности, нижнюю и верхнюю границу облачности).

Рекомендуем:

Погода в Славгороде - сегодня

Время (UTC), дата Ветер
(°,м/с) 
Видим.   Явления Облачность Т
(°С)
Тd
(°С)
f(%) Тe
(°С)
Pmin
(гПа)
dP
(гПа)
Po
(мм)
O2
(г/м3)
Тmin Tmax R s Состояние
почвы
00 15.09.19 250 (З) 20000 м    ясно 
+9.1 +8.1 93 +9  1017.3  0.5  752  292  +8.1        влажная 
03 15.09.19 250 (З) 20000 м    3/0 верхняя 
[Ci sp]
+14.4 +10.6 78 +18  1017.4  0.4  752  286           
06 15.09.19 270 (З) 20000 м    3/0 верхняя 
[Ci sp]
+22 +10.6 48 +24  1017  752  278           
09 15.09.19 280 (З) 20000 м    5/5 600 м кучево-дожд. 
[Cb cap]
+23.1 +8 38 +23  1016.1  -0.9  751  278           
12 15.09.19 040 (СВ) 20000 м    3/3 600 м кучево-дожд. 
[Cb cap]
+21.4 +7.6 41 +21  1016.4  0.2  751  279    +24.4       
15 15.09.19 170 (Ю) 20000 м    ясно 
+13.7 +8.9 73 +14  1017.8  1.1  752  287           
18 15.09.19 190 (Ю) 20000 м    ясно 
+11.8 +7.5 75 +12  1018.1  0.1  752  289           
21 15.09.19 190 (Ю) 20000 м    ясно 
+10 +6.9 81 +10  1018.2  752  291           
00 16.09.19 170 (Ю) 20000 м    ясно 
+7.9 +6.1 88 +9  1018.5  0.2  752  294  +7.9        сухая 
03 16.09.19 200 (Ю) 20000 м    ясно 
+15.4 +9.2 66 +17  1018.1  752  285  +7.6         
06 16.09.19 170 (Ю) 20000 м    ясно 
+22.9 +7.3 37 +23  1016.9  -0.8  752  278           
09 16.09.19 180 (Ю) 20000 м    4/4 600 м кучево-дожд. 
[Cb cap]
+24.2 +5.7 30 +24  1015.3  -1.5  751  277           
12 16.09.19 160 (Ю) 20000 м    6/3 600 м кучево-дожд., средняя 
[Cb cap|Ac trans]
+18.7 +8.9 53 +20  1015.4  -0.1  751  281    +24.6       
15 16.09.19 100 (В) 20000 м    3/0 средняя 
[Ac trans]
+15.5 +7.7 60 +16  1014.9  -0.7  750  285           
18 16.09.19 160 (Ю) 20000 м    ясно 
+13.8 +7.6 66 +14  1014.5  -0.5  750  286           
21 16.09.19 160 (Ю) 20000 м    ясно 
+12.2 +7.6 73 +12  1013.7  -0.9  749  288           
00 17.09.19 160 (Ю) 20000 м    8/0 средняя 
[Ac trans]
+10.4 +6.4 76 +10  1013.3  -0.5  749  290  +10.4        сухая 
03 17.09.19 180 (Ю) 20000 м    8/0 средняя 
[Ac trans]
+15.1 +7.3 60 +15  1013.1  0.1  749  285  +10.3         
12 17.09.19 230 (ЮЗ) 5{16}  20000 м    10/10 900 м 
[Sc]
+17.3 +7.7 53 +17  1015.4  1.4  750  283    +24.1       
15 17.09.19 210 (ЮЗ) 20000 м    10/10 960 м 
[Sc]
+15.6 +8.7 63 +16  1016.1  0.5  751  285           
18 17.09.19 200 (Ю) 20000 м    10/4 600 м верхняя 
[Sc|Ci sp]
+13.1 +8.3 73 +14  1016.2  751  287           
21 17.09.19 170 (Ю) 20000 м    10/0 верхняя 
[Ci sp]
+13.3 +8.8 74 +14  1016.1  751  287           
00 18.09.19 250 (З) 20000 м    10/10 1020 м 
[Sc]
+13.6 +7.8 68 +14  1016.6  0.5  751  287  +13        сухая 
06 18.09.19 180 (Ю) 20000 м    6/3 1000 м средняя 
[Sc|Ac trans]
+22.9 +6.5 35 +23  1015.9  -0.5  751  278           
09 18.09.19 270 (З) 5{10}  20000 м    6/0 верхняя 
[Ci sp]
+26 +5 26 +26  1015.1  -0.6  751  275           
Время (UTC), дата Ветер
(°,м/с) 
Видим.   Явления Облачность Т
(°С)
Тd
(°С)
f(%) Тe
(°С)
Pmin
(гПа)
dP
(гПа)
Po
(мм)
O2
(г/м3)
Тmin Tmax R s Состояние
почвы

Для получения пояснительной информации подведите курсор к названию столбца.

ПОГОДА в Славгороде - архив

Всё, что Вы хотите узнать о погоде в Славгороде - удобно и подробно!

Выберите нужную дату (начиная с 1 января 2018* года) и нажмите кнопку "Найти".
Будут отображены архивные сводки погоды по пункту Славгород, начиная с указанной даты.


Отображать данные в формате CSV (для использования в таблицах Excel)


Внимание! Наш архив погоды предназначен исключительно для личного некоммерческого использования в познавательных целях. Если Вам необходимы официальные справки о состоянии погоды (для производственных, юридических, коммерческих и т.п. целей), обращайтесь в органы Росгидромета.

*Примечание: данная дата относится к архиву по метеостанциям СССР (Россия, СНГ, Балтия).
Архив по метеостанциям Зарубежной Европы и Азии (кроме Китая) хранится 10 дней, по другим регионам земного шара (Китай, Африка, Америка, Австралия, Океания) - 1 день.

Славгород - район местоположения метеостанции


Название, широта, долгота, высота метеостанции:
Славгород 53°ш. 78.6°д. 126 м над ур. моря [Российская Федерация]

Дополнительная информация

В oтличие oт бoльшинства пoгoдных сайтoв мы публикуем пoдрoбную метеoинфoрмацию в детальнoм прoфессиoнальнoм фoрмате.

Характеристики температуры и влажнoсти вoздуха измеряются на высoте 2 м в тени вдали oт зданий и деревьев.
Скoрoсть ветра измеряется на высoте 10 м (на урoвне рoста челoвека скoрoсть ветра ниже в 1.5-2 раза). Если метеoстанция нахoдится в гoрoде или в лесу, тo скoрoсть ветра занижена на 2-4 м/с пo сравнению с oткрытым местoм. Скoрoсть ветра над акватoриями крупных рек и oзёр, а также на вершинах хoлмoв на 2-5 м/с выше, чем в oбычных услoвиях.
Атмoсфернoе давление в разных тoчках местнoсти мoжет значительнo oтличаться oт давления на метеoстанции, в зависимoсти oт услoвий рельефа (при пoдъёме на 10 м давление пoнижается примернo на 1 мм рт.ст.).